Change the Weather History Date:

Wednesday, January 8, 2014

  Actual Average Record
Temperature  
Mean Temperature 18 °F -  
Max Temperature 25 °F 34 °F 54 °F (1958)
Min Temperature 12 °F 21 °F 0 °F (1970)
Degree Days  
Heating Degree Days 46    
Moisture  
Dew Point 8 °F    
Average Humidity 59    
Maximum Humidity 68    
Minimum Humidity 49    
Precipitation  
Precipitation 0.00 in - - ()
Sea Level Pressure  
Sea Level Pressure 30.42 in    
Wind  
Wind Speed 13 mph (West)    
Max Wind Speed 18 mph    
Max Gust Speed 23 mph    
Visibility 10 miles    
Events      
Averages and records for this station are not official NWS values.
T = Trace of Precipitation, MM = Missing Value Source: NWS Daily Summary

Daily Weather History Graph

Daily Weather History Graph

Search for Another Location

Airport or City:

Trip Planner

Search our weather history database for the weather conditions in past years. The results will help you decide how hot, cold, wet, or windy it might be!

Date:

Astronomy

Jan. 08, 2014 Rise Set
Actual Time 7:05 AM EST 4:28 PM EST
Civil Twilight 6:34 AM EST 4:59 PM EST
Nautical Twilight 6:00 AM EST 5:33 PM EST
Astronomical Twilight 5:27 AM EST 6:07 PM EST
Moon 11:21 AM EST (1/8) 12:05 AM EST (1/8)
Length of Visible Light 10h 24m
Length of Day
9h 22m
First Quarter, 56% of the Moon is Illuminated
Jan 8
First Quarter
Jan 15
Full
Jan 24
Last Quarter
Jan 30
New
Feb 6
First Quarter

Hourly Weather History & Observations

Time (EST) Temp. Windchill Dew Point Humidity Pressure Visibility Wind Dir Wind Speed Gust Speed Precip Events Conditions
12:53 AM 12.0 °F -1.3 °F -2.0 °F 53% 30.31 in 10.0 mi WNW 10.4 mph - N/A   Clear
1:53 AM 14.0 °F -0.2 °F -0.0 °F 54% 30.33 in 10.0 mi West 12.7 mph 20.7 mph N/A   Clear
2:53 AM 14.0 °F -2.5 °F 1.0 °F 56% 30.35 in 10.0 mi WNW 17.3 mph 23.0 mph N/A   Clear
3:53 AM 15.1 °F 0.5 °F 1.0 °F 54% 30.37 in 10.0 mi WNW 13.8 mph 21.9 mph N/A   Clear
4:53 AM 16.0 °F 2.9 °F 5.0 °F 62% 30.37 in 10.0 mi WNW 11.5 mph - N/A   Clear
5:53 AM 16.0 °F 2.3 °F 3.0 °F 57% 30.40 in 10.0 mi WNW 12.7 mph - N/A   Clear
6:53 AM 14.0 °F 2.0 °F -0.0 °F 54% 30.41 in 10.0 mi WNW 9.2 mph - N/A   Clear
7:53 AM 16.0 °F 2.9 °F -0.0 °F 49% 30.45 in 10.0 mi WNW 11.5 mph - N/A   Clear
8:53 AM 19.0 °F 7.5 °F 3.9 °F 52% 30.47 in 10.0 mi WNW 10.4 mph - N/A   Clear
9:53 AM 21.0 °F 8.6 °F 6.1 °F 53% 30.48 in 10.0 mi West 12.7 mph 20.7 mph N/A   Clear
10:53 AM 21.0 °F 6.2 °F 8.1 °F 57% 30.47 in 10.0 mi West 18.4 mph 23.0 mph N/A   Scattered Clouds
11:17 AM 23.0 °F 9.6 °F 10.4 °F 59% 30.46 in 10.0 mi West 16.1 mph - N/A   Mostly Cloudy
11:53 AM 21.9 °F 8.7 °F 10.9 °F 63% 30.43 in 10.0 mi West 15.0 mph - N/A   Mostly Cloudy
12:53 PM 23.0 °F 10.1 °F 12.0 °F 63% 30.40 in 10.0 mi West 15.0 mph - N/A   Mostly Cloudy
1:53 PM 24.1 °F 11.5 °F 14.0 °F 65% 30.41 in 10.0 mi West 15.0 mph 23.0 mph N/A   Mostly Cloudy
2:32 PM 24.8 °F 14.6 °F 12.2 °F 59% 30.41 in 10.0 mi West 10.4 mph - N/A   Scattered Clouds
2:42 PM 23.0 °F 11.7 °F 14.0 °F 68% 30.41 in 10.0 mi West 11.5 mph - N/A   Mostly Cloudy
2:53 PM 23.0 °F 10.1 °F 14.0 °F 68% 30.41 in 10.0 mi West 15.0 mph - N/A   Scattered Clouds
3:53 PM 24.1 °F 12.0 °F 14.0 °F 65% 30.42 in 10.0 mi WSW 13.8 mph - N/A   Scattered Clouds
4:53 PM 24.1 °F 11.5 °F 12.9 °F 62% 30.43 in 10.0 mi WSW 15.0 mph 21.9 mph N/A   Scattered Clouds
5:53 PM 24.1 °F 12.0 °F 14.0 °F 65% 30.43 in 10.0 mi WSW 13.8 mph - N/A   Mostly Cloudy
6:53 PM 25.0 °F 15.5 °F 14.0 °F 63% 30.44 in 10.0 mi West 9.2 mph - N/A   Mostly Cloudy
7:53 PM 24.1 °F 13.1 °F 14.0 °F 65% 30.45 in 10.0 mi West 11.5 mph - N/A   Partly Cloudy
8:53 PM 25.0 °F 15.5 °F 15.1 °F 66% 30.46 in 10.0 mi West 9.2 mph - N/A   Mostly Cloudy
9:53 PM 23.0 °F 12.4 °F 10.9 °F 60% 30.45 in 10.0 mi WNW 10.4 mph - N/A   Partly Cloudy
10:53 PM 21.0 °F 10.6 °F 8.1 °F 57% 30.45 in 10.0 mi WNW 9.2 mph - N/A   Clear
11:53 PM 21.0 °F 10.6 °F 7.0 °F 55% 30.45 in 10.0 mi WNW 9.2 mph - N/A   Clear